Tracking 18030 objects as of 28-March-2017
HD Live streaming from Space Station
objects crossing your sky now

BREEZE-M DEB

Track BREEZE-M DEB now!
10-day predictions


NORAD ID: 34254
Int'l Code: 2006-006BV
Perigee: 429.1 km
Apogee: 12,126.6 km
Inclination: 51.7 °
Period: 236.0 minutes
Semi major axis: 12648 km
RCS: 0.033 m2 (small)
Launch date: February 28, 2006
Source: Commonwealth of Independent States (former USSR) (CIS)
Launch site: TYURATAM MISSILE AND SPACE COMPLEX (TTMTR)

Note: This is SATELLITE DEBRIS
Your satellite tracking list
Your tracking list is empty





NASA's NSSDC Master Catalog

Two Line Element Set (TLE):
1 34254U 06006BV  17081.54810513 +.00007229 +00000-0 +45995-2 0  9998
2 34254 051.6578 156.6030 4623917 226.2477 084.8468 06.10273215180953
Source of the keplerian elements: AFSPC